Location: *
(51.5000°N, 0.1100°W)
Time: 16:37:42
(UTC+00:00)

UNK - Pass Details

Date: 25 May 2024
Orbit: 660 x 680 km, 98.3° (Epoch: 16 June)

Event Time Altitude Azimuth Distance (km) Brightness Sun altitude
Rises 02:48:40 0° 164° (SSE) 3,029 6.8 -8.4°
Reaches altitude 10° 02:50:53 10° 165° (SSE) 2,118 6.0 -8.1°
Maximum altitude 02:55:32 87° 251° (WSW) 689 3.8 -7.7°
Drops below altitude 10° 03:00:12 10° 345° (NNW) 2,128 6.8 -7.2°
Sets 03:02:27 0° 345° (NNW) 3,045 7.6 -6.9°
